This is the latest recevied weather packets stored in our database for station/object KC3UTO. If no packets are shown the sender has not sent any weather packets the latest 10 day(s).
| Time | Temp. | Humidity | Pressure | Rain* | Wind** | Luminosity | Snow |
|---|---|---|---|---|---|---|---|
| 1777400198 | 15.56° C | 44% | 1019.1 hPa | 0 mm | - | 237 W/m² | - |
| 1777399894 | 15.56° C | 44% | 1019.1 hPa | 0 mm | - | 182 W/m² | - |
| 1777399591 | 15.56° C | 43% | 1019.2 hPa | 0 mm | - | 149 W/m² | - |
| 1777399288 | 15.56° C | 44% | 1019.6 hPa | 0 mm | - | 164 W/m² | - |
| 1777398986 | 15.56° C | 45% | 1019.7 hPa | 0 mm | - | 167 W/m² | - |
| 1777398683 | 15.56° C | 44% | 1019.7 hPa | 0 mm | - | 176 W/m² | - |
| 1777398379 | 15.56° C | 43% | 1019.4 hPa | 0 mm | - | 181 W/m² | - |
| 1777398076 | 15.56° C | 43% | 1019.5 hPa | 0 mm | - | 175 W/m² | - |
| 1777397774 | 15.56° C | 43% | 1019.6 hPa | 0 mm | - | 176 W/m² | - |
| 1777397474 | 16.11° C | 41% | 1019.4 hPa | 0 mm | - | 188 W/m² | - |
| 1777397171 | 16.11° C | 40% | 1019.6 hPa | 0 mm | - | 236 W/m² | - |
| 1777396868 | 16.11° C | 42% | 1019.5 hPa | 0 mm | - | 318 W/m² | - |
| 1777396563 | 15.56° C | 42% | 1019.7 hPa | 0 mm | - | 278 W/m² | - |
| 1777396261 | 16.11° C | 41% | 1019.5 hPa | 0 mm | - | 245 W/m² | - |
| 1777395956 | 16.11° C | 40% | 1019.9 hPa | 0 mm | - | 346 W/m² | - |
| 1777395652 | 15.56° C | 43% | 1020.1 hPa | 0 mm | - | 378 W/m² | - |
| 1777395348 | 15° C | 41% | 1019.8 hPa | 0 mm | - | 360 W/m² | - |
| 1777395046 | 15° C | 42% | 1020 hPa | 0 mm | - | 336 W/m² | - |
| 1777394743 | 15° C | 41% | 1020.2 hPa | 0 mm | - | 281 W/m² | - |
| 1777394439 | 15° C | 41% | 1020.2 hPa | 0 mm | - | 273 W/m² | - |
| 1777394136 | 15.56° C | 44% | 1020.4 hPa | 0 mm | - | 255 W/m² | - |
| 1777393832 | 15° C | 43% | 1020.1 hPa | 0 mm | - | 274 W/m² | - |
| 1777393530 | 15° C | 45% | 1020.2 hPa | 0 mm | - | 307 W/m² | - |
| 1777393226 | 14.44° C | 44% | 1020.6 hPa | 0 mm | - | 277 W/m² | - |
| 1777392924 | 14.44° C | 45% | 1020.5 hPa | 0 mm | - | 241 W/m² | - |
* Rain latest hour (hover to see other rain measurements)
** Current wind speed in m/s (hover to see current wind gust speed)